Location: *
(51.5000°N, 0.1100°W)
Time: 04:21:41
(UTC+00:00)

IDEFIX/ARIANE 42P - Pass Details

Date: 12 August 2024
Orbit: 782 x 799 km, 98.5° (Epoch: 08 September)

Event Time Altitude Azimuth Distance (km) Brightness Sun altitude
Rises 03:20:12 0° 7° (N) 3,285 6.6 -11.4°
Reaches altitude 10° 03:22:54 10° 354° (N) 2,353 5.5 -11.0°
Maximum altitude 03:26:58 24° 302° (WNW) 1,586 4.0 -10.6°
Enters shadow 03:30:49 11° 252° (WSW) 2,281 4.4 -10.1°
